Location: City of Moscow
(46.7306°N, 116.9989°W)
Time: 21:20:43
(UTC+00:00)

ATLAS 3B R/B - Pass Details

Date: 11 December 2025
Orbit: 936 x 1258 km, 63.8° (Epoch: 12 January)

Event Time Altitude Azimuth Distance (km) Brightness Sun altitude
Exits shadow 12:24:40 21° 346° (NNW) 2,503 4.4 -29.5°
Maximum altitude 12:27:42 26° 18° (NNE) 2,233 4.4 -29.0°
Drops below altitude 10° 12:34:02 10° 73° (ENE) 3,183 6.0 -27.9°
Sets 12:37:19 0° 86° (E) 4,108 7.0 -27.3°
